Temperature
9 9 8 8 7 7 6 6 6 6 6 6 5 5 5 5 5 5 5 6 6 6 6 6 6 6 6 6 6 6 5 5 5 5 5 5 6 6 7 7 7 7 7
8 8 7 7 6 6 6 6 6 6 5 5 4 4 4 4 4 4 4 4 4 5 5 5 5 6 6 6 6 5 5 5 4 4 5 5 5 6 6 6 6 7 7
6 6 5 5 6 5 5 5 5 4 4 3 3 3 3 2 2 2 2 2 2 3 3 4 4 5 5 5 5 5 4 4 4 4 4 4 5 5 5 6 6 6 6
4 4 4 5 5 5 4 3 3 2 1 1 0 0 -0 -0 0 1 1 1 1 1 2 2 3 3 3 3 3 3 3 3 3 3 3 4 4 4 5 5 5 6 6
2 4 4 4 4 3 2 2 1 -0 -1 -2 -1 -1 -1 -0 -0 0 0 0 0 1 1 1 1 1 2 2 2 1 1 1 2 2 2 3 3 3 3 3 3 5 5
2 2 3 2 2 1 0 -0 -1 -2 -3 -3 -2 -2 -1 -1 -1 -1 -1 -1 -1 -0 0 0 0 1 1 1 1 0 0 0 0 0 0 1 2 2 1 1 1 2 3
-0 0 1 -0 -1 -1 -2 -2 -3 -4 -4 -4 -3 -3 -2 -2 -3 -3 -3 -2 -2 -2 -2 -2 -1 -1 -1 -1 -2 -2 -1 -1 -1 -2 -2 -1 -1 0 -0 -0 0 1 2
-2 -2 -2 -3 -3 -3 -4 -4 -4 -5 -5 -5 -5 -4 -4 -4 -4 -4 -5 -4 -4 -4 -4 -4 -3 -3 -3 -4 -4 -4 -3 -3 -3 -3 -3 -3 -2 -1 -2 -1 -1 -0 1
-4 -4 -4 -4 -5 -5 -5 -5 -5 -5 -6 -6 -6 -5 -5 -5 -5 -5 -6 -6 -6 -5 -5 -5 -5 -5 -6 -6 -6 -6 -5 -4 -4 -4 -3 -3 -2 -2 -2 -2 -2 -1 -0
-5 -5 -5 -5 -5 -6 -6 -6 -6 -6 -6 -7 -7 -6 -6 -6 -6 -6 -7 -7 -7 -7 -6 -6 -6 -8 -8 -8 -8 -7 -7 -6 -6 -5 -4 -3 -3 -2 -1 -2 -3 -2 -2
-6 -6 -6 -6 -7 -7 -7 -7 -7 -7 -7 -7 -8 -8 -7 -7 -7 -8 -9 -9 -9 -8 -7 -7 -7 -8 -8 -8 -8 -8 -8 -8 -7 -6 -5 -4 -3 -3 -2 -2 -3 -3 -3
-7 -7 -7 -7 -8 -8 -8 -8 -8 -8 -8 -8 -8 -8 -8 -8 -8 -9 -10 -10 -10 -9 -8 -8 -8 -8 -7 -7 -7 -8 -8 -8 -7 -7 -6 -5 -5 -4 -3 -3 -3 -3 -3
-7 -7 -8 -8 -9 -9 -9 -9 -9 -9 -9 -9 -9 -9 -9 -9 -9 -10 -10 -10 -11 -10 -9 -9 -9 -8 -8 -7 -7 -7 -7 -8 -8 -8 -8 -7 -6 -5 -5 -4 -3 -3 -3
-8 -9 -9 -9 -9 -9 -9 -9 -9 -9 -10 -10 -10 -9 -9 -9 -10 -10 -11 -11 -11 -10 -10 -9 -9 -9 -9 -9 -8 -8 -8 -9 -9 -9 -9 -8 -7 -7 -6 -5 -5 -4 -4
-10 -10 -10 -10 -10 -9 -9 -9 -9 -10 -11 -11 -11 -10 -10 -10 -10 -10 -11 -11 -12 -12 -11 -10 -10 -9 -9 -9 -9 -9 -9 -9 -10 -10 -10 -9 -8 -8 -7 -7 -7 -7 -7
-10 -10 -10 -10 -10 -10 -10 -10 -10 -10 -11 -11 -11 -11 -11 -11 -11 -11 -12 -12 -12 -12 -11 -11 -11 -11 -11 -11 -11 -11 -10 -11 -11 -11 -11 -10 -10 -10 -9 -8 -8 -8 -8
-10 -10 -10 -10 -10 -10 -10 -10 -10 -10 -11 -11 -11 -11 -11 -12 -12 -12 -12 -13 -13 -12 -12 -12 -13 -13 -13 -13 -12 -12 -12 -12 -12 -12 -12 -11 -11 -11 -11 -10 -9 -9 -8
-11 -11 -11 -11 -11 -11 -12 -12 -12 -11 -11 -11 -11 -11 -12 -12 -13 -13 -13 -13 -13 -13 -13 -13 -14 -14 -14 -14 -13 -13 -13 -13 -13 -12 -12 -12 -11 -11 -12 -11 -11 -10 -9
-12 -12 -12 -12 -12 -12 -13 -13 -13 -13 -13 -12 -12 -12 -13 -13 -13 -14 -14 -14 -14 -14 -14 -14 -14 -14 -14 -14 -14 -14 -14 -13 -13 -13 -12 -12 -11 -12 -12 -11 -10 -9 -9
-12 -13 -13 -13 -13 -13 -13 -13 -14 -14 -14 -14 -14 -14 -13 -14 -14 -14 -15 -15 -15 -15 -15 -15 -15 -15 -15 -15 -15 -15 -14 -14 -13 -13 -12 -12 -12 -12 -12 -11 -10 -9 -9
-13 -13 -14 -14 -14 -14 -14 -14 -14 -15 -15 -14 -14 -14 -15 -15 -15 -15 -15 -15 -15 -16 -16 -15 -15 -15 -15 -15 -15 -15 -14 -14 -13 -13 -12 -12 -12 -12 -11 -11 -10 -9 -9
-14 -14 -14 -14 -14 -14 -15 -15 -15 -15 -15 -15 -15 -14 -15 -15 -15 -15 -15 -16 -16 -16 -16 -16 -16 -16 -16 -16 -15 -15 -15 -14 -13 -13 -13 -13 -12 -12 -11 -10 -10 -9 -9
-14 -14 -15 -15 -15 -15 -15 -15 -15 -15 -15 -15 -15 -15 -15 -15 -16 -16 -16 -16 -16 -16 -16 -16 -16 -16 -16 -16 -16 -16 -15 -14 -14 -13 -13 -13 -12 -12 -11 -10 -10 -9 -9
-15 -15 -15 -15 -15 -15 -15 -15 -15 -15 -16 -16 -16 -16 -16 -16 -16 -16 -16 -16 -16 -16 -16 -16 -16 -16 -16 -16 -16 -16 -15 -14 -14 -13 -13 -13 -12 -11 -11 -10 -10 -9 -9
-15 -15 -15 -15 -15 -16 -16 -16 -16 -16 -16 -17 -17 -17 -17 -17 -17 -17 -17 -17 -17 -16 -16 -16 -16 -16 -16 -16 -16 -16 -15 -14 -13 -13 -13 -12 -12 -11 -11 -10 -10 -10 -10
-15 -15 -16 -16 -16 -16 -16 -16 -17 -17 -17 -18 -18 -18 -17 -17 -17 -17 -17 -17 -17 -16 -16 -16 -16 -16 -16 -16 -16 -15 -15 -14 -13 -13 -13 -12 -12 -12 -11 -10 -10 -10 -10
Wind_Speed
9 10 9 6 4 3 4 4 4 3 4 5 5 6 6 6 5 4 5 5 6 7 6 6 7 6 5 5 4 4 4 4 5 5 4 5 6 8 9 8 11 11 11
8 9 9 5 3 4 4 3 3 4 4 5 6 6 6 6 6 6 6 5 5 6 7 6 7 5 6 4 4 4 3 3 4 6 4 4 5 7 9 9 8 8 9
8 10 7 3 2 3 2 2 3 3 4 5 5 6 6 7 6 5 4 2 3 4 4 4 4 2 3 1 2 1 1 1 3 4 5 4 4 6 8 9 9 8 8
9 7 5 2 2 2 2 2 3 4 4 5 5 6 6 6 4 1 3 5 6 8 9 8 7 6 4 2 1 1 1 2 2 4 5 5 5 6 6 8 10 7 7
6 5 3 2 2 2 2 3 4 5 5 5 5 4 5 6 8 9 8 9 10 10 10 10 10 13 14 10 6 5 3 2 3 4 6 6 5 5 6 6 10 10 9
2 2 1 1 2 2 3 4 5 5 5 5 6 8 9 9 14 16 12 10 10 10 9 9 9 11 13 14 13 12 10 7 6 5 6 8 8 7 7 8 9 11 8
3 4 5 4 4 4 4 5 6 5 5 6 7 7 8 11 15 14 15 9 8 8 7 7 7 9 10 7 9 12 11 13 12 9 9 9 10 9 9 11 10 12 12
6 6 6 6 6 5 4 5 5 4 5 5 6 7 7 10 14 14 13 8 6 7 7 6 6 7 9 10 9 7 6 8 12 9 8 10 11 10 10 12 13 14 13
7 6 6 6 6 5 4 5 5 5 5 5 5 6 7 9 13 12 10 5 5 6 6 7 8 7 12 16 11 9 8 8 12 15 18 19 23 24 20 12 12 13 13
7 7 6 6 5 4 4 4 4 5 5 4 5 5 6 7 11 11 9 4 4 4 4 6 11 11 14 15 10 8 8 9 10 11 13 16 16 18 21 13 10 13 13
6 6 6 6 5 5 4 4 4 4 4 3 4 4 5 7 9 10 9 4 4 4 4 5 6 14 15 15 11 6 11 12 8 7 9 9 9 10 10 10 9 10 13
4 4 5 6 6 5 5 5 5 4 3 3 2 3 3 5 8 8 9 8 7 4 5 5 7 15 15 13 10 11 15 12 7 8 8 8 8 9 10 13 15 15 14
4 5 5 5 6 5 4 4 4 4 3 3 2 3 3 4 6 9 8 9 10 5 4 9 12 13 12 9 12 14 11 7 7 8 9 10 10 11 12 12 13 14 15
4 4 4 5 5 5 4 4 3 3 3 3 3 3 3 4 5 5 2 3 7 6 3 6 10 11 9 10 10 9 7 7 8 8 9 11 11 11 12 11 12 12 12
3 4 4 4 3 4 4 4 4 3 4 3 2 3 4 4 7 10 5 4 4 5 4 4 5 6 6 6 7 7 7 8 8 8 9 10 11 11 12 11 12 12 13
4 4 4 4 3 4 4 5 7 6 8 8 8 8 6 8 12 11 9 10 10 10 5 4 5 5 6 7 8 8 8 9 9 10 10 10 12 12 13 12 12 13 14
6 5 4 5 5 5 5 5 6 6 8 9 11 12 10 11 11 10 10 11 9 7 3 3 4 5 6 6 7 7 9 9 9 10 11 11 12 13 13 13 13 13 14
6 7 5 3 4 4 4 5 5 6 7 6 9 12 12 11 11 9 11 8 4 4 2 4 4 5 5 5 7 7 8 9 9 9 10 11 11 12 13 14 14 15 16
6 5 4 3 4 5 5 6 6 6 7 8 8 8 11 12 10 8 9 4 5 5 5 5 5 6 6 6 7 8 9 10 10 11 11 12 12 13 14 14 15 20 19
6 11 11 7 6 6 6 6 6 6 7 7 7 7 8 9 5 4 3 4 4 5 5 5 6 6 6 6 7 8 9 10 10 11 11 12 13 14 15 17 16 16 15
6 7 13 9 5 5 5 5 6 6 7 8 7 9 13 8 4 4 5 5 5 5 6 6 6 7 7 6 7 8 10 11 11 12 13 13 14 15 15 15 16 14 13
6 6 7 6 6 7 7 6 6 6 8 9 8 10 15 8 6 8 7 5 5 5 6 6 6 6 6 7 8 9 10 12 12 13 14 14 15 15 15 15 13 10 8
7 7 7 7 7 10 9 7 7 8 9 9 10 10 10 9 8 7 6 6 6 6 5 6 7 7 7 8 8 9 11 12 14 16 17 16 14 13 14 13 10 6 4
7 8 8 7 8 7 8 9 9 10 11 11 11 11 10 9 9 10 9 7 7 7 6 6 7 9 11 10 9 10 10 13 16 17 16 12 13 13 12 8 5 3 2
7 7 8 7 8 9 9 10 10 11 12 12 12 12 11 11 11 10 8 7 8 8 7 6 5 7 11 13 12 13 20 26 26 15 9 9 11 11 8 4 4 5 6
8 8 8 8 8 9 10 10 11 12 12 12 12 13 13 13 13 11 9 8 7 7 6 5 6 8 11 12 14 19 23 25 23 17 9 7 8 5 4 5 7 7 8
Wind_Direction
127 118 108 95 90 83 73 54 33 11 351 330 310 303 303 304 308 303 286 274 261 264 258 240 244 236 221 216 204 200 204 201 248 272 266 283 287 282 285 276 269 261 261
114 104 91 84 86 83 70 45 20 4 349 326 312 306 302 299 296 285 281 283 276 274 275 263 256 245 225 212 196 196 197 201 227 274 288 294 289 287 285 282 276 268 260
103 91 90 93 86 70 42 10 1 358 346 329 323 316 305 296 286 275 263 307 339 338 334 313 293 255 227 172 157 167 208 231 229 262 284 283 292 297 300 294 283 274 264
89 97 117 124 85 45 8 351 357 359 346 331 318 306 298 297 303 19 73 62 49 43 38 33 30 39 40 39 30 334 305 297 277 274 282 284 280 293 297 300 300 290 275
103 125 141 144 81 48 24 20 11 2 352 333 329 349 8 28 51 57 52 51 46 40 36 30 33 33 29 25 17 9 356 314 297 288 291 294 290 301 299 301 300 301 288
83 110 112 73 45 26 17 26 14 358 352 10 36 41 35 38 56 60 58 48 44 38 33 28 28 28 18 11 2 357 355 344 329 306 297 295 296 290 290 293 297 298 294
26 35 27 17 4 1 22 31 15 6 29 48 40 41 33 25 42 55 57 55 44 33 28 27 25 16 9 347 352 2 355 342 329 313 301 299 301 299 296 294 287 284 282
25 21 11 3 355 355 33 36 16 28 51 60 45 40 34 20 29 42 54 49 41 25 14 17 14 357 348 353 359 355 348 341 324 315 300 297 298 294 283 284 284 282 278
12 6 2 356 351 3 43 42 37 48 50 59 49 39 32 11 15 21 43 37 29 15 8 6 1 343 341 347 350 341 339 330 325 318 315 310 305 300 295 290 286 285 280
354 352 353 352 1 38 52 54 58 59 54 58 53 38 28 9 7 7 16 32 12 0 3 4 354 341 337 341 341 340 329 316 321 325 318 311 305 300 298 286 276 278 282
344 356 3 360 16 47 47 48 49 58 60 54 51 33 16 10 4 4 11 22 26 12 360 349 335 340 339 337 340 336 315 327 344 324 307 302 304 304 305 303 293 279 274
359 15 16 17 20 36 39 43 42 39 39 24 23 23 0 350 353 353 6 6 14 26 347 327 328 341 343 346 345 333 337 346 337 318 311 306 306 306 307 308 304 298 287
19 26 30 32 24 18 28 36 34 27 19 358 360 1 337 329 329 337 352 356 352 351 325 337 344 348 350 348 343 350 356 349 332 323 313 306 305 302 300 298 297 293 288
17 20 35 29 20 9 11 24 26 1 338 344 345 329 310 305 305 299 285 331 344 333 344 353 352 349 351 347 348 348 344 330 324 316 307 303 301 299 296 296 299 300 295
22 27 33 32 13 4 8 359 352 314 310 325 289 286 296 295 303 324 353 339 334 319 15 11 354 348 346 342 338 337 334 328 323 315 310 307 304 301 297 296 294 292 285
20 28 23 15 358 4 2 352 339 328 332 337 330 323 310 308 314 329 341 341 344 350 19 353 342 337 333 330 329 327 325 322 321 317 310 306 303 301 299 297 293 286 281
6 13 17 7 355 351 348 332 319 319 322 328 331 328 321 319 321 328 337 345 352 0 6 324 316 316 315 316 314 311 310 309 309 304 301 300 300 298 296 295 293 288 282
1 358 357 333 333 327 316 304 299 307 318 320 325 325 323 323 322 334 343 352 343 342 296 289 295 304 305 304 306 303 301 302 300 298 296 294 294 294 293 293 291 287 285
347 331 333 321 322 317 310 307 307 309 314 315 314 316 322 321 320 328 340 331 311 311 309 306 298 299 299 298 299 300 298 297 296 298 297 295 296 296 294 293 291 287 285
331 335 341 339 331 321 316 315 314 312 310 306 303 303 305 302 295 294 295 274 275 280 286 290 291 287 285 286 291 296 298 297 297 298 299 300 298 296 297 296 292 289 285
324 323 330 330 315 309 304 298 298 299 301 302 295 298 305 310 297 275 271 269 262 274 285 289 291 295 297 299 298 301 300 299 298 298 298 298 297 297 297 294 290 286 283
334 328 329 327 327 324 318 318 313 305 302 302 302 303 310 311 298 292 289 272 260 265 268 277 282 283 287 292 295 296 295 294 294 294 294 293 293 295 297 294 290 288 290
344 341 338 335 332 331 334 325 315 311 309 308 305 304 304 303 299 295 287 280 272 269 260 261 271 276 276 280 280 279 281 285 288 289 290 292 295 298 297 293 292 300 315
350 345 340 336 333 329 325 322 321 319 317 314 311 308 304 299 294 289 285 279 275 272 263 259 263 270 278 286 284 282 280 283 286 289 291 295 298 298 295 292 302 331 22
350 344 338 333 331 330 328 326 324 323 321 318 314 311 307 301 295 290 279 273 275 276 272 267 267 277 284 287 288 290 294 300 307 315 305 300 298 299 306 329 17 46 66
347 342 337 331 329 330 330 329 328 326 323 321 317 313 308 303 297 290 282 275 273 273 272 270 270 277 284 290 293 300 307 311 321 337 341 318 317 329 5 41 57 64 73
Height
1427 1428 1431 1432 1432 1431 1430 1429 1427 1426 1425 1424 1424 1423 1422 1421 1420 1420 1421 1422 1422 1422 1421 1421 1421 1421 1421 1422 1423 1424 1425 1425 1422 1420 1420 1420 1419 1418 1416 1415 1414 1414 1414
1422 1423 1426 1429 1428 1426 1424 1422 1421 1419 1417 1416 1415 1414 1413 1412 1411 1411 1412 1413 1413 1413 1413 1412 1413 1414 1414 1416 1417 1418 1419 1419 1417 1415 1414 1414 1413 1413 1411 1409 1408 1407 1406
1416 1418 1423 1424 1423 1420 1418 1416 1414 1412 1410 1410 1408 1407 1405 1404 1403 1403 1405 1405 1405 1404 1404 1404 1405 1406 1407 1409 1410 1411 1412 1413 1412 1411 1409 1408 1408 1407 1405 1403 1402 1401 1400
1412 1416 1419 1419 1417 1414 1412 1410 1408 1406 1405 1405 1404 1403 1402 1401 1400 1400 1400 1400 1399 1398 1398 1398 1399 1400 1401 1403 1404 1405 1406 1406 1406 1405 1404 1403 1402 1401 1400 1397 1395 1394 1393
1412 1414 1414 1413 1411 1409 1407 1406 1404 1403 1403 1403 1402 1401 1400 1399 1397 1397 1396 1396 1395 1395 1394 1394 1395 1395 1396 1398 1399 1399 1399 1399 1399 1398 1397 1396 1395 1395 1394 1392 1390 1387 1385
1410 1410 1410 1408 1406 1405 1404 1402 1402 1402 1402 1402 1401 1399 1397 1396 1395 1394 1393 1393 1392 1392 1392 1391 1391 1392 1392 1393 1393 1393 1394 1394 1393 1392 1391 1390 1388 1388 1387 1386 1384 1381 1378
1407 1407 1406 1405 1404 1403 1402 1401 1400 1401 1401 1400 1399 1397 1395 1394 1393 1391 1391 1391 1390 1390 1389 1388 1387 1387 1387 1387 1386 1387 1387 1387 1387 1386 1385 1383 1381 1380 1380 1379 1377 1375 1372
1404 1404 1403 1403 1403 1401 1400 1399 1400 1400 1399 1398 1397 1395 1394 1392 1391 1389 1388 1389 1388 1388 1386 1385 1383 1382 1382 1382 1380 1380 1380 1380 1379 1379 1378 1375 1374 1372 1372 1371 1370 1367 1364
1402 1402 1402 1402 1401 1400 1399 1399 1398 1398 1397 1396 1395 1393 1392 1390 1389 1387 1386 1386 1385 1385 1383 1381 1379 1378 1377 1377 1375 1374 1373 1373 1373 1372 1371 1369 1367 1365 1364 1362 1361 1360 1357
1401 1401 1401 1400 1399 1398 1398 1397 1397 1396 1395 1394 1393 1392 1390 1388 1386 1385 1384 1383 1382 1381 1379 1377 1375 1374 1373 1372 1370 1369 1367 1366 1365 1364 1364 1362 1360 1358 1357 1355 1353 1352 1351
1400 1399 1399 1399 1398 1397 1396 1395 1394 1394 1394 1393 1391 1389 1387 1385 1383 1383 1382 1381 1379 1377 1375 1373 1371 1370 1369 1367 1366 1364 1362 1361 1358 1357 1356 1355 1353 1351 1349 1347 1345 1344 1343
1398 1398 1397 1397 1396 1394 1394 1393 1392 1392 1392 1391 1389 1387 1385 1383 1381 1381 1380 1379 1377 1374 1372 1370 1368 1366 1365 1363 1360 1358 1357 1354 1351 1349 1348 1347 1345 1343 1341 1339 1337 1335 1334
1397 1396 1395 1394 1393 1392 1391 1390 1390 1389 1389 1388 1386 1384 1383 1381 1380 1379 1377 1376 1374 1371 1369 1366 1364 1362 1360 1359 1356 1353 1350 1348 1345 1343 1341 1339 1338 1335 1332 1329 1327 1325 1323
1396 1394 1392 1392 1391 1391 1390 1388 1388 1388 1387 1386 1384 1382 1381 1380 1379 1377 1375 1372 1370 1368 1364 1362 1360 1358 1356 1354 1352 1349 1346 1344 1341 1338 1335 1333 1330 1327 1324 1321 1317 1313 1310
1394 1393 1391 1391 1391 1390 1388 1387 1387 1386 1386 1385 1382 1381 1378 1377 1376 1376 1373 1370 1367 1364 1361 1357 1355 1353 1351 1348 1346 1344 1341 1339 1336 1333 1329 1326 1322 1319 1316 1313 1309 1305 1301
1395 1393 1391 1390 1390 1388 1387 1386 1385 1385 1383 1382 1380 1378 1375 1374 1373 1371 1369 1367 1363 1360 1356 1353 1350 1347 1345 1342 1339 1337 1335 1333 1330 1327 1323 1320 1316 1312 1307 1304 1301 1297 1293
1395 1393 1391 1390 1388 1386 1385 1385 1384 1383 1381 1379 1376 1374 1372 1370 1368 1367 1365 1362 1358 1355 1352 1349 1346 1343 1340 1338 1335 1333 1330 1328 1326 1323 1319 1315 1310 1305 1301 1296 1292 1288 1284
1395 1392 1390 1389 1387 1385 1384 1383 1380 1378 1375 1373 1372 1369 1367 1365 1364 1362 1360 1357 1354 1351 1347 1345 1342 1339 1336 1333 1331 1328 1326 1323 1320 1317 1313 1309 1304 1298 1293 1289 1285 1281 1276
1394 1392 1389 1387 1385 1383 1381 1379 1377 1374 1371 1369 1366 1365 1363 1360 1359 1357 1355 1352 1349 1346 1343 1340 1338 1335 1332 1329 1325 1322 1319 1316 1314 1310 1306 1301 1296 1290 1286 1281 1277 1272 1269
1393 1391 1388 1385 1383 1381 1378 1375 1373 1370 1368 1365 1363 1360 1358 1356 1354 1352 1350 1347 1344 1341 1339 1336 1333 1330 1327 1323 1320 1316 1313 1310 1307 1303 1298 1293 1288 1283 1279 1274 1269 1264 1259
1392 1389 1387 1384 1380 1377 1375 1372 1370 1367 1364 1362 1359 1357 1355 1353 1350 1347 1344 1342 1339 1336 1334 1330 1327 1324 1321 1317 1314 1310 1307 1305 1302 1298 1293 1288 1282 1277 1273 1267 1262 1257 1251
1391 1388 1384 1381 1377 1375 1372 1370 1367 1364 1361 1359 1355 1353 1351 1348 1345 1342 1339 1337 1334 1332 1329 1326 1323 1320 1317 1313 1310 1307 1304 1302 1299 1294 1289 1283 1278 1273 1267 1262 1256 1251 1246
1389 1385 1382 1379 1376 1373 1371 1368 1365 1362 1359 1355 1352 1348 1345 1342 1339 1336 1334 1331 1329 1327 1324 1322 1319 1316 1313 1309 1306 1304 1301 1298 1294 1289 1284 1279 1273 1268 1262 1257 1253 1248 1244
1388 1385 1382 1379 1376 1373 1370 1366 1363 1359 1355 1351 1347 1343 1340 1336 1333 1330 1327 1324 1322 1320 1319 1317 1314 1311 1308 1305 1302 1299 1297 1294 1289 1285 1281 1275 1268 1263 1258 1254 1251 1247 1244
1389 1385 1382 1379 1376 1372 1369 1365 1361 1356 1351 1347 1342 1338 1333 1329 1325 1322 1320 1318 1316 1315 1313 1312 1309 1306 1304 1301 1298 1295 1293 1290 1287 1282 1276 1269 1264 1260 1257 1254 1251 1248 1246
1390 1387 1383 1379 1376 1372 1368 1364 1359 1354 1348 1343 1338 1333 1328 1323 1318 1315 1313 1312 1311 1310 1309 1307 1305 1304 1301 1298 1295 1291 1290 1287 1283 1277 1271 1266 1262 1259 1256 1254 1252 1251 1249